owner,sensor,date,latitude,longitude,vertical_datum,wind_speed,wind_to_direction,wind_speed_of_gust,qcFlag 
ADCP,ioos:station:wmo:42887:1,2012-01-01T00:00:00Z,28.1910,-88.4960,48.2,3.3,164.0,99.0,'11111222,11111222,11144222' 
ADCP,ioos:station:wmo:42887:1,2012-01-01T00:40:00Z,28.1910,-88.4960,48.2,3.2,162.0,99.0,'11111222,11111222,11144222' 
ADCP,ioos:station:wmo:42887:1,2012-01-01T01:00:00Z,28.1910,-88.4960,48.2,4.1,168.0,99.0,'11111222,11111222,11144222' 
ADCP,ioos:station:wmo:42887:1,2012-01-01T01:20:00Z,28.1910,-88.4960,48.2,4.0,168.0,99.0,'11111222,11111222,11144222' 
ADCP,ioos:station:wmo:42887:1,2012-01-01T01:40:00Z,28.1910,-88.4960,48.2,3.9,164.0,99.0,'11111222,11111222,11144222' 
ADCP,ioos:station:wmo:42887:1,2012-01-01T02:00:00Z,28.1910,-88.4960,48.2,4.1,170.0,99.0,'11111222,11111222,11144222' 
ADCP,ioos:station:wmo:42887:1,2012-01-01T02:20:00Z,28.1910,-88.4960,48.2,4.0,165.0,99.0,'11111222,11111222,11144222' 
ADCP,ioos:station:wmo:42887:1,2012-01-01T02:40:00Z,28.1910,-88.4960,48.2,4.5,167.0,99.0,'11111222,11111222,11144222' 
ADCP,ioos:station:wmo:42887:1,2012-01-01T03:00:00Z,28.1910,-88.4960,48.2,3.7,170.0,99.0,'11111222,11111222,11144222' 
ADCP,ioos:station:wmo:42887:1,2012-01-01T03:20:00Z,28.1910,-88.4960,48.2,3.9,166.0,99.0,'11111222,11111222,11144222' 
ADCP,ioos:station:wmo:42887:1,2012-01-01T04:00:00Z,28.1910,-88.4960,48.2,4.2,161.0,99.0,'11111222,11111222,11144222' 
ADCP,ioos:station:wmo:42887:1,2012-01-01T04:20:00Z,28.1910,-88.4960,48.2,3.9,158.0,99.0,'11111222,11111222,11144222' 
ADCP,ioos:station:wmo:42887:1,2012-01-01T04:40:00Z,28.1910,-88.4960,48.2,3.9,160.0,99.0,'11111222,11111222,11144222' 
ADCP,ioos:station:wmo:42887:1,2012-01-01T05:00:00Z,28.1910,-88.4960,48.2,2.9,162.0,99.0,'11111222,11111222,11144222' 
ADCP,ioos:station:wmo:42887:1,2012-01-01T05:20:00Z,28.1910,-88.4960,48.2,3.9,162.0,99.0,'11111222,11111222,11144222' 
ADCP,ioos:station:wmo:42887:1,2012-01-01T05:40:00Z,28.1910,-88.4960,48.2,3.8,155.0,99.0,'11111222,11111222,11144222' 
ADCP,ioos:station:wmo:42887:1,2012-01-01T06:00:00Z,28.1910,-88.4960,48.2,3.0,164.0,99.0,'11111222,11111222,11144222' 
ADCP,ioos:station:wmo:42887:1,2012-01-01T06:20:00Z,28.1910,-88.4960,48.2,4.1,167.0,99.0,'11111222,11111222,11144222' 
ADCP,ioos:station:wmo:42887:1,2012-01-01T06:40:00Z,28.1910,-88.4960,48.2,3.8,172.0,99.0,'11111222,11111222,11144222' 
ADCP,ioos:station:wmo:42887:1,2012-01-01T07:00:00Z,28.1910,-88.4960,48.2,4.8,171.0,99.0,'11111222,11111222,11144222' 
ADCP,ioos:station:wmo:42887:1,2012-01-01T07:20:00Z,28.1910,-88.4960,48.2,4.7,173.0,99.0,'11111222,11111222,11144222' 
ADCP,ioos:station:wmo:42887:1,2012-01-01T08:00:00Z,28.1910,-88.4960,48.2,4.3,173.0,99.0,'11111222,11111222,11144222' 
ADCP,ioos:station:wmo:42887:1,2012-01-01T08:20:00Z,28.1910,-88.4960,48.2,3.7,179.0,99.0,'11111222,11111222,11144222' 
ADCP,ioos:station:wmo:42887:1,2012-01-01T09:00:00Z,28.1910,-88.4960,48.2,3.2,198.0,99.0,'11111222,11111222,11144222' 
ADCP,ioos:station:wmo:42887:1,2012-01-01T09:20:00Z,28.1910,-88.4960,48.2,3.1,191.0,99.0,'11111222,11111222,11144222' 
ADCP,ioos:station:wmo:42887:1,2012-01-01T10:00:00Z,28.1910,-88.4960,48.2,1.9,253.0,99.0,'11111222,11111222,11144222' 
ADCP,ioos:station:wmo:42887:1,2012-01-01T10:20:00Z,28.1910,-88.4960,48.2,1.7,237.0,99.0,'11111222,11111222,11144222' 
ADCP,ioos:station:wmo:42887:1,2012-01-01T10:40:00Z,28.1910,-88.4960,48.2,2.0,250.0,99.0,'11111222,11111222,11144222' 
ADCP,ioos:station:wmo:42887:1,2012-01-01T11:00:00Z,28.1910,-88.4960,48.2,2.9,242.0,99.0,'11111222,11111222,11144222' 
ADCP,ioos:station:wmo:42887:1,2012-01-01T11:20:00Z,28.1910,-88.4960,48.2,2.8,242.0,99.0,'11111222,11111222,11144222' 
ADCP,ioos:station:wmo:42887:1,2012-01-01T11:40:00Z,28.1910,-88.4960,48.2,2.5,249.0,99.0,'11111222,11111222,11144222' 
ADCP,ioos:station:wmo:42887:1,2012-01-01T12:00:00Z,28.1910,-88.4960,48.2,2.6,248.0,99.0,'11111222,11111222,11144222' 
ADCP,ioos:station:wmo:42887:1,2012-01-01T12:20:00Z,28.1910,-88.4960,48.2,2.9,284.0,99.0,'11111222,11111222,11144222' 
ADCP,ioos:station:wmo:42887:1,2012-01-01T12:40:00Z,28.1910,-88.4960,48.2,1.9,279.0,99.0,'11111222,11111222,11144222' 
ADCP,ioos:station:wmo:42887:1,2012-01-01T13:00:00Z,28.1910,-88.4960,48.2,1.6,273.0,99.0,'11111222,11111222,11144222' 
ADCP,ioos:station:wmo:42887:1,2012-01-01T13:20:00Z,28.1910,-88.4960,48.2,2.3,241.0,99.0,'11111222,11111222,11144222' 
ADCP,ioos:station:wmo:42887:1,2012-01-01T13:40:00Z,28.1910,-88.4960,48.2,1.5,260.0,99.0,'11111222,11111222,11144222' 
ADCP,ioos:station:wmo:42887:1,2012-01-01T14:00:00Z,28.1910,-88.4960,48.2,3.0,247.0,99.0,'11111222,11111222,11144222' 
ADCP,ioos:station:wmo:42887:1,2012-01-01T14:20:00Z,28.1910,-88.4960,48.2,2.6,242.0,99.0,'11111222,11111222,11144222' 
ADCP,ioos:station:wmo:42887:1,2012-01-01T15:00:00Z,28.1910,-88.4960,48.2,1.4,270.0,99.0,'11111222,11111222,11144222' 
ADCP,ioos:station:wmo:42887:1,2012-01-01T15:20:00Z,28.1910,-88.4960,48.2,1.4,278.0,99.0,'11111222,11111222,11144222' 
ADCP,ioos:station:wmo:42887:1,2012-01-01T15:40:00Z,28.1910,-88.4960,48.2,1.6,283.0,99.0,'11111222,11111222,11144222' 
ADCP,ioos:station:wmo:42887:1,2012-01-01T16:00:00Z,28.1910,-88.4960,48.2,1.0,272.0,99.0,'11111222,11111222,11144222' 
ADCP,ioos:station:wmo:42887:1,2012-01-01T16:20:00Z,28.1910,-88.4960,48.2,3.0,230.0,99.0,'11111222,11111222,11144222' 
ADCP,ioos:station:wmo:42887:1,2012-01-01T16:40:00Z,28.1910,-88.4960,48.2,1.8,261.0,99.0,'11111222,11111222,11144222' 
ADCP,ioos:station:wmo:42887:1,2012-01-01T17:00:00Z,28.1910,-88.4960,48.2,4.1,232.0,99.0,'11111222,11111222,11144222' 
ADCP,ioos:station:wmo:42887:1,2012-01-01T17:20:00Z,28.1910,-88.4960,48.2,2.9,244.0,99.0,'11111222,11111222,11144222' 
ADCP,ioos:station:wmo:42887:1,2012-01-01T17:40:00Z,28.1910,-88.4960,48.2,1.9,273.0,99.0,'11111222,11111222,11144222' 
ADCP,ioos:station:wmo:42887:1,2012-01-01T18:00:00Z,28.1910,-88.4960,48.2,1.8,279.0,99.0,'11111222,11111222,11144222' 
ADCP,ioos:station:wmo:42887:1,2012-01-01T18:20:00Z,28.1910,-88.4960,48.2,2.0,270.0,99.0,'11111222,11111222,11144222' 
ADCP,ioos:station:wmo:42887:1,2012-01-01T19:00:00Z,28.1910,-88.4960,48.2,6.1,287.0,99.0,'11111222,11111222,11144222' 
ADCP,ioos:station:wmo:42887:1,2012-01-01T19:20:00Z,28.1910,-88.4960,48.2,7.5,287.0,99.0,'11111222,11111222,11144222' 
ADCP,ioos:station:wmo:42887:1,2012-01-01T19:40:00Z,28.1910,-88.4960,48.2,5.6,281.0,99.0,'11111222,11111222,11144222' 
ADCP,ioos:station:wmo:42887:1,2012-01-01T20:00:00Z,28.1910,-88.4960,48.2,6.3,284.0,99.0,'11111222,11111222,11144222' 
ADCP,ioos:station:wmo:42887:1,2012-01-01T20:20:00Z,28.1910,-88.4960,48.2,7.1,295.0,99.0,'11111222,11111222,11144222' 
ADCP,ioos:station:wmo:42887:1,2012-01-01T20:40:00Z,28.1910,-88.4960,48.2,7.6,299.0,99.0,'11111222,11111222,11144222' 
ADCP,ioos:station:wmo:42887:1,2012-01-01T21:00:00Z,28.1910,-88.4960,48.2,6.0,288.0,99.0,'11111222,11111222,11144222' 
ADCP,ioos:station:wmo:42887:1,2012-01-01T21:20:00Z,28.1910,-88.4960,48.2,5.3,284.0,99.0,'11111222,11111222,11144222' 
ADCP,ioos:station:wmo:42887:1,2012-01-01T21:40:00Z,28.1910,-88.4960,48.2,5.7,286.0,99.0,'11111222,11111222,11144222' 
ADCP,ioos:station:wmo:42887:1,2012-01-01T22:00:00Z,28.1910,-88.4960,48.2,5.3,290.0,99.0,'11111222,11111222,11144222' 
ADCP,ioos:station:wmo:42887:1,2012-01-01T22:20:00Z,28.1910,-88.4960,48.2,6.3,286.0,99.0,'11111222,11111222,11144222' 
ADCP,ioos:station:wmo:42887:1,2012-01-01T22:40:00Z,28.1910,-88.4960,48.2,7.3,288.0,99.0,'11111222,11111222,11144222' 
ADCP,ioos:station:wmo:42887:1,2012-01-01T23:00:00Z,28.1910,-88.4960,48.2,6.7,338.0,99.0,'11111222,11111222,11144222' 
ADCP,ioos:station:wmo:42887:1,2012-01-01T23:20:00Z,28.1910,-88.4960,48.2,6.7,349.0,99.0,'11111222,11111222,11144222' 
ADCP,ioos:station:wmo:42887:1,2012-01-01T23:40:00Z,28.1910,-88.4960,48.2,4.4,349.0,99.0,'11111222,11111222,11144222' 
ADCP,ioos:station:wmo:42887:1,2012-01-02T00:00:00Z,28.1910,-88.4960,48.2,3.2,349.0,99.0,'11111222,11111222,11144222' 
ADCP,ioos:station:wmo:42887:1,2012-01-02T00:20:00Z,28.1910,-88.4960,48.2,3.6,328.0,99.0,'11111222,11111222,11144222' 
ADCP,ioos:station:wmo:42887:1,2012-01-02T00:40:00Z,28.1910,-88.4960,48.2,3.7,292.0,99.0,'11111222,11111222,11144222' 
ADCP,ioos:station:wmo:42887:1,2012-01-02T01:00:00Z,28.1910,-88.4960,48.2,8.8,350.0,99.0,'11111222,11111222,11144222' 
ADCP,ioos:station:wmo:42887:1,2012-01-02T01:20:00Z,28.1910,-88.4960,48.2,9.9,349.0,99.0,'11111222,11111222,11144222' 
ADCP,ioos:station:wmo:42887:1,2012-01-02T02:00:00Z,28.1910,-88.4960,48.2,11.8,1.0,99.0,'11111222,11111222,11144222' 
ADCP,ioos:station:wmo:42887:1,2012-01-02T02:20:00Z,28.1910,-88.4960,48.2,12.4,4.0,99.0,'11111222,11111222,11144222' 
ADCP,ioos:station:wmo:42887:1,2012-01-02T02:40:00Z,28.1910,-88.4960,48.2,12.7,3.0,99.0,'11111222,11111222,11144222' 
ADCP,ioos:station:wmo:42887:1,2012-01-02T03:00:00Z,28.1910,-88.4960,48.2,12.1,9.0,99.0,'11111222,11111222,11144222' 
ADCP,ioos:station:wmo:42887:1,2012-01-02T03:20:00Z,28.1910,-88.4960,48.2,13.8,1.0,99.0,'11111222,11111222,11144222' 
ADCP,ioos:station:wmo:42887:1,2012-01-02T03:40:00Z,28.1910,-88.4960,48.2,13.7,3.0,99.0,'11111222,11111222,11144222' 
ADCP,ioos:station:wmo:42887:1,2012-01-02T04:00:00Z,28.1910,-88.4960,48.2,13.6,5.0,99.0,'11111222,11111222,11144222' 
ADCP,ioos:station:wmo:42887:1,2012-01-02T04:20:00Z,28.1910,-88.4960,48.2,12.1,9.0,99.0,'11111222,11111222,11144222' 
ADCP,ioos:station:wmo:42887:1,2012-01-02T04:40:00Z,28.1910,-88.4960,48.2,13.3,21.0,99.0,'11111222,11111222,11144222' 
ADCP,ioos:station:wmo:42887:1,2012-01-02T06:40:00Z,28.1910,-88.4960,48.2,12.5,18.0,99.0,'11111222,11111222,11144222' 
ADCP,ioos:station:wmo:42887:1,2012-01-02T07:00:00Z,28.1910,-88.4960,48.2,12.4,16.0,99.0,'11111222,11111222,11144222' 
ADCP,ioos:station:wmo:42887:1,2012-01-02T07:20:00Z,28.1910,-88.4960,48.2,13.0,20.0,99.0,'11111222,11111222,11144222' 
ADCP,ioos:station:wmo:42887:1,2012-01-02T08:00:00Z,28.1910,-88.4960,48.2,14.8,18.0,99.0,'11111222,11111222,11144222' 
ADCP,ioos:station:wmo:42887:1,2012-01-02T08:20:00Z,28.1910,-88.4960,48.2,12.9,21.0,99.0,'11111222,11111222,11144222' 
ADCP,ioos:station:wmo:42887:1,2012-01-02T08:40:00Z,28.1910,-88.4960,48.2,12.8,15.0,99.0,'11111222,11111222,11144222' 
ADCP,ioos:station:wmo:42887:1,2012-01-02T09:20:00Z,28.1910,-88.4960,48.2,12.6,15.0,99.0,'11111222,11111222,11144222' 
ADCP,ioos:station:wmo:42887:1,2012-01-02T10:00:00Z,28.1910,-88.4960,48.2,13.6,21.0,99.0,'11111222,11111222,11144222' 
ADCP,ioos:station:wmo:42887:1,2012-01-02T11:00:00Z,28.1910,-88.4960,48.2,15.2,21.0,99.0,'11111222,11111222,11144222' 
ADCP,ioos:station:wmo:42887:1,2012-01-02T11:20:00Z,28.1910,-88.4960,48.2,12.3,26.0,99.0,'11111222,11111222,11144222' 
ADCP,ioos:station:wmo:42887:1,2012-01-02T11:40:00Z,28.1910,-88.4960,48.2,13.1,12.0,99.0,'11111222,11111222,11144222' 
ADCP,ioos:station:wmo:42887:1,2012-01-02T12:00:00Z,28.1910,-88.4960,48.2,12.8,16.0,99.0,'11111222,11111222,11144222' 
ADCP,ioos:station:wmo:42887:1,2012-01-02T12:20:00Z,28.1910,-88.4960,48.2,13.5,16.0,99.0,'11111222,11111222,11144222' 
ADCP,ioos:station:wmo:42887:1,2012-01-02T12:40:00Z,28.1910,-88.4960,48.2,12.7,25.0,99.0,'11111222,11111222,11144222' 
ADCP,ioos:station:wmo:42887:1,2012-01-02T13:00:00Z,28.1910,-88.4960,48.2,11.7,21.0,99.0,'11111222,11111222,11144222' 
ADCP,ioos:station:wmo:42887:1,2012-01-02T13:20:00Z,28.1910,-88.4960,48.2,11.2,23.0,99.0,'11111222,11111222,11144222' 
ADCP,ioos:station:wmo:42887:1,2012-01-02T13:40:00Z,28.1910,-88.4960,48.2,12.0,13.0,99.0,'11111222,11111222,11144222' 
ADCP,ioos:station:wmo:42887:1,2012-01-02T14:00:00Z,28.1910,-88.4960,48.2,11.6,22.0,99.0,'11111222,11111222,11144222' 
ADCP,ioos:station:wmo:42887:1,2012-01-02T14:20:00Z,28.1910,-88.4960,48.2,11.3,18.0,99.0,'11111222,11111222,11144222' 
ADCP,ioos:station:wmo:42887:1,2012-01-02T14:40:00Z,28.1910,-88.4960,48.2,9.9,17.0,99.0,'11111222,11111222,11144222' 
ADCP,ioos:station:wmo:42887:1,2012-01-02T15:00:00Z,28.1910,-88.4960,48.2,10.7,9.0,99.0,'11111222,11111222,11144222' 
ADCP,ioos:station:wmo:42887:1,2012-01-02T15:20:00Z,28.1910,-88.4960,48.2,10.1,15.0,99.0,'11111222,11111222,11144222' 
ADCP,ioos:station:wmo:42887:1,2012-01-02T15:40:00Z,28.1910,-88.4960,48.2,10.5,357.0,99.0,'11111222,11111222,11144222' 
ADCP,ioos:station:wmo:42887:1,2012-01-02T16:00:00Z,28.1910,-88.4960,48.2,11.6,357.0,99.0,'11111222,11111222,11144222' 
ADCP,ioos:station:wmo:42887:1,2012-01-02T16:20:00Z,28.1910,-88.4960,48.2,13.6,18.0,99.0,'11111222,11111222,11144222' 
ADCP,ioos:station:wmo:42887:1,2012-01-02T16:40:00Z,28.1910,-88.4960,48.2,11.6,1.0,99.0,'11111222,11111222,11144222' 
ADCP,ioos:station:wmo:42887:1,2012-01-02T17:00:00Z,28.1910,-88.4960,48.2,9.3,19.0,99.0,'11111222,11111222,11144222' 
ADCP,ioos:station:wmo:42887:1,2012-01-02T17:20:00Z,28.1910,-88.4960,48.2,9.6,12.0,99.0,'11111222,11111222,11144222' 
ADCP,ioos:station:wmo:42887:1,2012-01-02T17:40:00Z,28.1910,-88.4960,48.2,10.4,354.0,99.0,'11111222,11111222,11144222' 
ADCP,ioos:station:wmo:42887:1,2012-01-02T18:00:00Z,28.1910,-88.4960,48.2,12.2,356.0,99.0,'11111222,11111222,11144222' 
ADCP,ioos:station:wmo:42887:1,2012-01-02T18:20:00Z,28.1910,-88.4960,48.2,10.0,1.0,99.0,'11111222,11111222,11144222' 
ADCP,ioos:station:wmo:42887:1,2012-01-02T19:00:00Z,28.1910,-88.4960,48.2,11.0,355.0,99.0,'11111222,11111222,11144222' 
ADCP,ioos:station:wmo:42887:1,2012-01-02T19:20:00Z,28.1910,-88.4960,48.2,12.2,354.0,99.0,'11111222,11111222,11144222' 
ADCP,ioos:station:wmo:42887:1,2012-01-02T19:40:00Z,28.1910,-88.4960,48.2,11.2,357.0,99.0,'11111222,11111222,11144222' 
ADCP,ioos:station:wmo:42887:1,2012-01-02T20:00:00Z,28.1910,-88.4960,48.2,10.9,353.0,99.0,'11111222,11111222,11144222' 
ADCP,ioos:station:wmo:42887:1,2012-01-02T20:20:00Z,28.1910,-88.4960,48.2,10.3,357.0,99.0,'11111222,11111222,11144222' 
ADCP,ioos:station:wmo:42887:1,2012-01-02T20:40:00Z,28.1910,-88.4960,48.2,12.1,352.0,99.0,'11111222,11111222,11144222' 
ADCP,ioos:station:wmo:42887:1,2012-01-02T21:00:00Z,28.1910,-88.4960,48.2,10.0,351.0,99.0,'11111222,11111222,11144222' 
ADCP,ioos:station:wmo:42887:1,2012-01-02T21:20:00Z,28.1910,-88.4960,48.2,7.8,342.0,99.0,'11111222,11111222,11144222' 
ADCP,ioos:station:wmo:42887:1,2012-01-02T21:40:00Z,28.1910,-88.4960,48.2,9.4,337.0,99.0,'11111222,11111222,11144222' 
ADCP,ioos:station:wmo:42887:1,2012-01-02T22:00:00Z,28.1910,-88.4960,48.2,8.4,353.0,99.0,'11111222,11111222,11144222' 
ADCP,ioos:station:wmo:42887:1,2012-01-02T22:20:00Z,28.1910,-88.4960,48.2,8.5,353.0,99.0,'11111222,11111222,11144222' 
ADCP,ioos:station:wmo:42887:1,2012-01-02T23:00:00Z,28.1910,-88.4960,48.2,10.8,353.0,99.0,'11111222,11111222,11144222' 
ADCP,ioos:station:wmo:42887:1,2012-01-02T23:20:00Z,28.1910,-88.4960,48.2,9.7,352.0,99.0,'11111222,11111222,11144222' 
ADCP,ioos:station:wmo:42887:1,2012-01-02T23:40:00Z,28.1910,-88.4960,48.2,8.7,350.0,99.0,'11111222,11111222,11144222' 
ADCP,ioos:station:wmo:42887:1,2012-01-03T00:00:00Z,28.1910,-88.4960,48.2,8.8,343.0,99.0,'11111222,11111222,11144222' 
ADCP,ioos:station:wmo:42887:1,2012-01-03T00:20:00Z,28.1910,-88.4960,48.2,10.1,348.0,99.0,'11111222,11111222,11144222' 
ADCP,ioos:station:wmo:42887:1,2012-01-03T01:00:00Z,28.1910,-88.4960,48.2,8.6,325.0,99.0,'11111222,11111222,11144222' 
ADCP,ioos:station:wmo:42887:1,2012-01-03T01:20:00Z,28.1910,-88.4960,48.2,11.0,330.0,99.0,'11111222,11111222,11144222' 
ADCP,ioos:station:wmo:42887:1,2012-01-03T02:00:00Z,28.1910,-88.4960,48.2,11.2,348.0,99.0,'11111222,11111222,11144222' 
ADCP,ioos:station:wmo:42887:1,2012-01-03T02:20:00Z,28.1910,-88.4960,48.2,12.5,347.0,99.0,'11111222,11111222,11144222' 
ADCP,ioos:station:wmo:42887:1,2012-01-03T02:40:00Z,28.1910,-88.4960,48.2,13.0,352.0,99.0,'11111222,11111222,11144222' 
ADCP,ioos:station:wmo:42887:1,2012-01-03T03:20:00Z,28.1910,-88.4960,48.2,15.9,349.0,99.0,'11111222,11111222,11144222' 
ADCP,ioos:station:wmo:42887:1,2012-01-03T03:40:00Z,28.1910,-88.4960,48.2,15.5,351.0,99.0,'11111222,11111222,11144222' 
ADCP,ioos:station:wmo:42887:1,2012-01-03T04:00:00Z,28.1910,-88.4960,48.2,16.5,349.0,99.0,'11111222,11111222,11144222' 
ADCP,ioos:station:wmo:42887:1,2012-01-03T04:20:00Z,28.1910,-88.4960,48.2,13.8,350.0,99.0,'11111222,11111222,11144222' 
ADCP,ioos:station:wmo:42887:1,2012-01-03T05:00:00Z,28.1910,-88.4960,48.2,14.7,349.0,99.0,'11111222,11111222,11144222' 
ADCP,ioos:station:wmo:42887:1,2012-01-03T05:20:00Z,28.1910,-88.4960,48.2,16.5,357.0,99.0,'11111222,11111222,11144222' 
ADCP,ioos:station:wmo:42887:1,2012-01-03T05:40:00Z,28.1910,-88.4960,48.2,14.3,349.0,99.0,'11111222,11111222,11144222' 
ADCP,ioos:station:wmo:42887:1,2012-01-03T06:00:00Z,28.1910,-88.4960,48.2,13.1,3.0,99.0,'11111222,11111222,11144222' 
ADCP,ioos:station:wmo:42887:1,2012-01-03T06:20:00Z,28.1910,-88.4960,48.2,15.4,352.0,99.0,'11111222,11111222,11144222' 
ADCP,ioos:station:wmo:42887:1,2012-01-03T06:40:00Z,28.1910,-88.4960,48.2,13.9,360.0,99.0,'11111222,11144222,11144222' 
ADCP,ioos:station:wmo:42887:1,2012-01-03T07:00:00Z,28.1910,-88.4960,48.2,14.2,4.0,99.0,'11111222,11111222,11144222' 
ADCP,ioos:station:wmo:42887:1,2012-01-03T07:20:00Z,28.1910,-88.4960,48.2,14.4,353.0,99.0,'11111222,11111222,11144222' 
ADCP,ioos:station:wmo:42887:1,2012-01-03T08:00:00Z,28.1910,-88.4960,48.2,14.6,354.0,99.0,'11111222,11111222,11144222' 
ADCP,ioos:station:wmo:42887:1,2012-01-03T08:20:00Z,28.1910,-88.4960,48.2,14.1,358.0,99.0,'11111222,11111222,11144222' 
ADCP,ioos:station:wmo:42887:1,2012-01-03T09:00:00Z,28.1910,-88.4960,48.2,13.7,356.0,99.0,'11111222,11111222,11144222' 
ADCP,ioos:station:wmo:42887:1,2012-01-03T09:20:00Z,28.1910,-88.4960,48.2,12.6,353.0,99.0,'11111222,11111222,11144222' 
ADCP,ioos:station:wmo:42887:1,2012-01-03T09:40:00Z,28.1910,-88.4960,48.2,13.3,6.0,99.0,'11111222,11111222,11144222' 
ADCP,ioos:station:wmo:42887:1,2012-01-03T10:00:00Z,28.1910,-88.4960,48.2,12.9,4.0,99.0,'11111222,11111222,11144222' 
ADCP,ioos:station:wmo:42887:1,2012-01-03T10:20:00Z,28.1910,-88.4960,48.2,12.1,4.0,99.0,'11111222,11111222,11144222' 
ADCP,ioos:station:wmo:42887:1,2012-01-03T12:00:00Z,28.1910,-88.4960,48.2,12.0,356.0,99.0,'11111222,11111222,11144222' 
ADCP,ioos:station:wmo:42887:1,2012-01-03T12:20:00Z,28.1910,-88.4960,48.2,9.2,10.0,99.0,'11111222,11111222,11144222' 
ADCP,ioos:station:wmo:42887:1,2012-01-03T13:20:00Z,28.1910,-88.4960,48.2,9.6,18.0,99.0,'11111222,11111222,11144222' 
ADCP,ioos:station:wmo:42887:1,2012-01-03T14:00:00Z,28.1910,-88.4960,48.2,9.7,22.0,99.0,'11111222,11111222,11144222' 
ADCP,ioos:station:wmo:42887:1,2012-01-03T14:20:00Z,28.1910,-88.4960,48.2,12.2,23.0,99.0,'11111222,11111222,11144222' 
ADCP,ioos:station:wmo:42887:1,2012-01-03T14:40:00Z,28.1910,-88.4960,48.2,10.7,27.0,99.0,'11111222,11111222,11144222' 
ADCP,ioos:station:wmo:42887:1,2012-01-03T15:00:00Z,28.1910,-88.4960,48.2,11.8,28.0,99.0,'11111222,11111222,11144222' 
ADCP,ioos:station:wmo:42887:1,2012-01-03T15:20:00Z,28.1910,-88.4960,48.2,11.1,25.0,99.0,'11111222,11111222,11144222' 
ADCP,ioos:station:wmo:42887:1,2012-01-03T15:40:00Z,28.1910,-88.4960,48.2,9.1,22.0,99.0,'11111222,11111222,11144222' 
ADCP,ioos:station:wmo:42887:1,2012-01-03T16:00:00Z,28.1910,-88.4960,48.2,8.9,28.0,99.0,'11111222,11111222,11144222' 
ADCP,ioos:station:wmo:42887:1,2012-01-03T16:20:00Z,28.1910,-88.4960,48.2,9.3,19.0,99.0,'11111222,11111222,11144222' 
ADCP,ioos:station:wmo:42887:1,2012-01-03T17:20:00Z,28.1910,-88.4960,48.2,10.2,26.0,99.0,'11111222,11111222,11144222' 
ADCP,ioos:station:wmo:42887:1,2012-01-03T17:40:00Z,28.1910,-88.4960,48.2,8.3,28.0,99.0,'11111222,11111222,11144222' 
ADCP,ioos:station:wmo:42887:1,2012-01-03T18:00:00Z,28.1910,-88.4960,48.2,8.0,21.0,99.0,'11111222,11111222,11144222' 
ADCP,ioos:station:wmo:42887:1,2012-01-03T18:20:00Z,28.1910,-88.4960,48.2,6.7,13.0,99.0,'11111222,11111222,11144222' 
ADCP,ioos:station:wmo:42887:1,2012-01-03T18:40:00Z,28.1910,-88.4960,48.2,7.4,21.0,99.0,'11111222,11111222,11144222' 
ADCP,ioos:station:wmo:42887:1,2012-01-03T19:00:00Z,28.1910,-88.4960,48.2,7.1,15.0,99.0,'11111222,11111222,11144222' 
ADCP,ioos:station:wmo:42887:1,2012-01-03T19:20:00Z,28.1910,-88.4960,48.2,7.9,23.0,99.0,'11111222,11111222,11144222' 
ADCP,ioos:station:wmo:42887:1,2012-01-03T20:00:00Z,28.1910,-88.4960,48.2,7.7,11.0,99.0,'11111222,11111222,11144222' 
ADCP,ioos:station:wmo:42887:1,2012-01-03T20:20:00Z,28.1910,-88.4960,48.2,7.4,11.0,99.0,'11111222,11111222,11144222' 
ADCP,ioos:station:wmo:42887:1,2012-01-03T21:00:00Z,28.1910,-88.4960,48.2,6.2,356.0,99.0,'11111222,11111222,11144222' 
ADCP,ioos:station:wmo:42887:1,2012-01-03T21:20:00Z,28.1910,-88.4960,48.2,8.1,13.0,99.0,'11111222,11111222,11144222' 
ADCP,ioos:station:wmo:42887:1,2012-01-03T21:40:00Z,28.1910,-88.4960,48.2,5.6,20.0,99.0,'11111222,11111222,11144222' 
ADCP,ioos:station:wmo:42887:1,2012-01-03T22:00:00Z,28.1910,-88.4960,48.2,6.1,2.0,99.0,'11111222,11111222,11144222' 
ADCP,ioos:station:wmo:42887:1,2012-01-03T22:20:00Z,28.1910,-88.4960,48.2,6.9,24.0,99.0,'11111222,11111222,11144222' 
ADCP,ioos:station:wmo:42887:1,2012-01-03T23:20:00Z,28.1910,-88.4960,48.2,6.1,50.0,99.0,'11111222,11111222,11144222' 
ADCP,ioos:station:wmo:42887:1,2012-01-04T00:00:00Z,28.1910,-88.4960,48.2,4.1,30.0,99.0,'11111222,11111222,11144222' 
ADCP,ioos:station:wmo:42887:1,2012-01-04T00:20:00Z,28.1910,-88.4960,48.2,6.3,27.0,99.0,'11111222,11111222,11144222' 
ADCP,ioos:station:wmo:42887:1,2012-01-04T00:40:00Z,28.1910,-88.4960,48.2,5.7,28.0,99.0,'11111222,11111222,11144222' 
ADCP,ioos:station:wmo:42887:1,2012-01-04T01:00:00Z,28.1910,-88.4960,48.2,4.5,30.0,99.0,'11111222,11111222,11144222' 
ADCP,ioos:station:wmo:42887:1,2012-01-04T01:20:00Z,28.1910,-88.4960,48.2,6.2,27.0,99.0,'11111222,11111222,11144222' 
ADCP,ioos:station:wmo:42887:1,2012-01-04T02:00:00Z,28.1910,-88.4960,48.2,4.3,73.0,99.0,'11111222,11111222,11144222' 
ADCP,ioos:station:wmo:42887:1,2012-01-04T02:20:00Z,28.1910,-88.4960,48.2,4.4,32.0,99.0,'11111222,11111222,11144222' 
ADCP,ioos:station:wmo:42887:1,2012-01-04T03:00:00Z,28.1910,-88.4960,48.2,3.1,47.0,99.0,'11111222,11111222,11144222' 
ADCP,ioos:station:wmo:42887:1,2012-01-04T03:20:00Z,28.1910,-88.4960,48.2,2.8,27.0,99.0,'11111222,11111222,11144222' 
ADCP,ioos:station:wmo:42887:1,2012-01-04T03:40:00Z,28.1910,-88.4960,48.2,4.7,28.0,99.0,'11111222,11111222,11144222' 
ADCP,ioos:station:wmo:42887:1,2012-01-04T04:00:00Z,28.1910,-88.4960,48.2,1.7,70.0,99.0,'11111222,11111222,11144222' 
ADCP,ioos:station:wmo:42887:1,2012-01-04T04:20:00Z,28.1910,-88.4960,48.2,2.1,49.0,99.0,'11111222,11111222,11144222' 
ADCP,ioos:station:wmo:42887:1,2012-01-04T04:40:00Z,28.1910,-88.4960,48.2,2.6,52.0,99.0,'11111222,11111222,11144222' 
ADCP,ioos:station:wmo:42887:1,2012-01-04T05:00:00Z,28.1910,-88.4960,48.2,1.6,48.0,99.0,'11111222,11111222,11144222' 
ADCP,ioos:station:wmo:42887:1,2012-01-04T05:20:00Z,28.1910,-88.4960,48.2,2.9,74.0,99.0,'11111222,11111222,11144222' 
ADCP,ioos:station:wmo:42887:1,2012-01-04T05:40:00Z,28.1910,-88.4960,48.2,1.8,72.0,99.0,'11111222,11111222,11144222' 
ADCP,ioos:station:wmo:42887:1,2012-01-04T06:00:00Z,28.1910,-88.4960,48.2,2.9,45.0,99.0,'11111222,11111222,11144222' 
ADCP,ioos:station:wmo:42887:1,2012-01-04T06:20:00Z,28.1910,-88.4960,48.2,1.3,68.0,99.0,'11111222,11111222,11144222' 
ADCP,ioos:station:wmo:42887:1,2012-01-04T07:00:00Z,28.1910,-88.4960,48.2,1.7,113.0,99.0,'11111222,11111222,11144222' 
ADCP,ioos:station:wmo:42887:1,2012-01-04T07:20:00Z,28.1910,-88.4960,48.2,1.8,83.0,99.0,'11111222,11111222,11144222' 
ADCP,ioos:station:wmo:42887:1,2012-01-04T07:40:00Z,28.1910,-88.4960,48.2,1.5,101.0,99.0,'11111222,11111222,11144222' 
ADCP,ioos:station:wmo:42887:1,2012-01-04T08:00:00Z,28.1910,-88.4960,48.2,2.4,74.0,99.0,'11111222,11111222,11144222' 
ADCP,ioos:station:wmo:42887:1,2012-01-04T08:20:00Z,28.1910,-88.4960,48.2,0.6,64.0,99.0,'11111222,11111222,11144222' 
ADCP,ioos:station:wmo:42887:1,2012-01-04T08:40:00Z,28.1910,-88.4960,48.2,0.7,95.0,99.0,'11111222,11111222,11144222' 
ADCP,ioos:station:wmo:42887:1,2012-01-04T09:00:00Z,28.1910,-88.4960,48.2,1.2,86.0,99.0,'11111222,11111222,11144222' 
ADCP,ioos:station:wmo:42887:1,2012-01-04T09:20:00Z,28.1910,-88.4960,48.2,0.9,91.0,99.0,'11111222,11111222,11144222' 